Regional Weather Roundup
Issued by NWS Charleston, WV

Home | Current Version | Previous Version | Text Only | Print | Product List | Glossary Off
Versions: 1 2 3 4 5 6 7 8 9 10 11 12 13 14 15 16 17 18 19 20 21 22 23 24 25 26 27 28 29 30 31 32 33 34 35 36 37 38 39 40 41 42 43 44 45 46 47 48 49 50

000
ASUS41 KRLX 221910
RWRRLX
West Virginia Regional Weather Roundup
National Weather Service Charleston WV
300 PM EDT MON MAY 22 2017

Note: "fair" indicates few or no clouds below 12,000 feet with no
significant weather and/or obstructions to visibility.

WVZ003-222000-
Northern Panhandle of West Virginia

CITY           SKY/WX    TMP DP  RH WIND       PRES   REMARKS
WHEELING       PTSUNNY   63  45  51 SW13G21   30.04F
$$

WVZ009-222000-
Northwest West Virginia

CITY           SKY/WX    TMP DP  RH WIND       PRES   REMARKS
PARKERSBURG    PTSUNNY   67  48  50 VRB5      30.10S
$$

WVZ006-222000-
Western West Virginia

CITY           SKY/WX    TMP DP  RH WIND       PRES   REMARKS
HUNTINGTON     CLOUDY    68  49  50 VRB6      30.09F
$$

WVZ015-222000-
West Central West Virginia

CITY           SKY/WX    TMP DP  RH WIND       PRES   REMARKS
CHARLESTON     CLOUDY    67  50  54 VRB6      30.08F
$$

WVZ022-031-222000-
North Central West Virginia

CITY           SKY/WX    TMP DP  RH WIND       PRES   REMARKS
CLARKSBURG     CLOUDY    68  51  54 W9        30.05S
MORGANTOWN     MOSUNNY   70  50  49 VRB7      30.04S
$$

WVZ025-035-042-045-222000-
Southern West Virginia

CITY           SKY/WX    TMP DP  RH WIND       PRES   REMARKS
BECKLEY        PTSUNNY   65  53  65 W8        30.10F
LOGAN            N/A     66  54  63 W9        30.09F
BLUEFIELD      CLOUDY    64  52  64 VRB7      30.11F
LEWISBURG      CLOUDY    68  51  53 NW7       30.07F
$$

WVZ047-222000-
Northern Mountains of West Virginia

CITY           SKY/WX    TMP DP  RH WIND       PRES   REMARKS
ELKINS         CLOUDY    69  51  52 W7G17     30.06S
$$

WVZ052-222000-
Eastern Panhandle of West Virginia

CITY           SKY/WX    TMP DP  RH WIND       PRES   REMARKS
MARTINSBURG    CLOUDY    73  63  70 E9        29.94F
PETERSBURG     CLOUDY    78  55  45 W13       29.98S
$$



USA.gov is the U.S. government's official web portal to all federal, state and local government web resources and services.